Location: S�tio Afonso Gruber
(26.1760°S, 49.5250°W)
Time: 23:46:15
(UTC+00:00)

Intelsat 5-3 Rocket - Pass Details

Date: 03 October 2020
Orbit: 281 x 6111 km, 23.6° (Epoch: 22 October)

Event Time Altitude Azimuth Distance (km) Brightness Sun altitude
Exits shadow 02:54:53 39° 88° (E) 5,872 7.2 -59.6°
Drops below altitude 10° 03:14:50 10° 90° (E) 9,443 8.5 -59.7°
Sets 03:24:05 0° 89° (E) 10,733 8.9 -59.4°
